User: anonymous   Login
Location: Unspecified
(0.0000°N, 0.0000°E)
Time: 22:43:10
(UTC+00:00)
Language:

LEMUR 2 ANUBHAVTHAKUR - Orbit

View from above orbital plane
View from above orbital plane
View from above satellite
View from above satellite

Ground track
Ground track

The orbit data is extracted from the following two-line orbital elements,

1 41873U 16062E   18344.15030313  .00000671  00000-0  42682-4 0  9994
2 41873  51.6169  38.1566 0003458   6.8209 353.2815 15.22557881113317
Epoch (UTC): 10 December 2018 03:36:26
Eccentricity: 0.0003458
inclination: 51.6169°
perigee height: 496 km
apogee height: 500 km
right ascension of ascending node: 38.1566°
argument of perigee: 6.8209°
revolutions per day: 15.22557881
mean anomaly at epoch: 353.2815°
orbit number at epoch: 11331

The dashed part of the orbit path shows where the satellite is in the earth's shadow,  

DLR